Location: Hilton Head Island
(32.2163°N, 80.7526°W)
Time: 06:58:51
(UTC-04:00)

Altair - Pass Details

Date: 17 February 2026
Orbit: 1502 x 1682 km, 47.2° (Epoch: 8 March)

Event Time Altitude Azimuth Distance (km) Brightness Sun altitude
Exits shadow 06:22:01 11° 274° (W) 3,601 8.8 -9.4°
Maximum altitude 06:30:19 40° 341° (NNW) 2,134 8.1 -7.7°
Drops below altitude 10° 06:39:06 10° 49° (NE) 3,769 10.1 -5.9°
Sets 06:42:33 0° 57° (ENE) 4,782 10.9 -5.1°
